Terminal Aerodrome Forecast
Issued by NWS

Home | Current Version | Previous Version | Text Only | Print | Product List | Glossary On
Versions: 1 2 3 4 5 6 7 8 9 10 11 12 13 14 15 16
352
FTUS42 TJSJ 041152
TAFJPS
TAF
TJPS 041152Z 0412/0512 12008KT P6SM VCSH FEW025 BKN060
     FM041400 13010KT P6SM VCSH FEW030 SCT050
     FM042330 05005KT P6SM FEW030=

USA.gov is the U.S. government's official web portal to all federal, state and local government web resources and services.